Dewpoint
54 45 43 43 33 32 30 26 32 39 39 41 42 43 45 42 47 44 38 54 60 61 63 68 70 69 69 69 69 68 68 68 68 68 68 68 68 68 68 68 67 68 67 66 66 65 64 63 66
51 39 44 41 33 24 24 28 27 35 40 34 34 36 34 36 31 32 51 57 57 58 61 64 68 68 69 69 68 68 68 67 68 68 67 66 65 65 67 67 66 67 67 67 67 67 67 66 64
33 40 41 41 34 28 22 24 28 38 40 39 35 30 30 30 28 31 36 52 53 56 59 63 66 66 66 66 66 65 66 65 64 64 64 63 62 62 63 63 63 63 64 65 65 65 65 66 67
31 42 42 39 38 36 26 24 38 39 40 39 36 33 22 26 29 30 48 49 51 53 56 61 64 64 63 63 62 61 60 60 58 57 56 55 55 54 54 56 56 56 56 57 57 58 60 62 64
39 42 40 39 39 39 37 37 40 39 40 41 35 32 26 25 29 37 47 46 48 50 53 57 61 60 59 59 58 57 56 55 53 52 52 50 51 50 51 52 52 52 53 53 53 53 54 55 55
34 41 38 38 40 41 41 41 41 41 42 41 34 29 26 26 29 34 42 42 44 47 49 52 57 58 56 55 54 54 53 51 50 50 49 48 48 48 48 48 50 50 51 51 51 51 51 52 52
38 38 38 38 39 39 40 39 42 41 41 39 33 31 25 25 28 32 36 38 38 41 45 48 50 53 55 55 54 51 50 49 48 48 48 47 48 47 47 47 48 49 48 49 50 51 50 50 50
36 38 36 37 39 39 39 37 37 40 38 35 30 30 27 23 27 27 31 33 34 35 38 42 46 47 47 49 53 52 50 48 46 47 48 48 47 47 47 48 47 46 47 47 48 48 49 49 47
39 35 35 37 37 38 35 32 24 26 30 28 29 29 26 24 23 24 25 27 30 32 34 38 42 40 39 41 46 50 51 50 50 48 48 44 41 42 41 47 46 46 46 47 47 47 47 46 45
39 35 34 38 35 31 25 28 27 21 21 21 19 22 24 24 20 21 23 23 25 29 32 35 38 39 36 33 40 38 39 41 41 39 39 40 40 43 41 43 45 45 46 46 47 47 46 43 40
32 36 36 32 25 23 23 25 24 22 21 23 24 22 23 22 20 19 21 21 23 27 30 31 33 35 35 33 36 38 38 38 39 37 39 39 39 39 39 39 39 40 42 40 41 41 40 40 40
31 34 36 33 23 22 23 17 18 23 28 25 24 22 22 21 19 18 18 19 21 24 27 29 29 29 29 32 36 35 37 35 39 36 38 38 38 37 38 38 38 39 40 39 39 40 40 40 40
30 30 28 21 19 17 18 18 21 20 23 20 22 22 21 21 20 18 18 19 22 23 26 28 28 28 29 30 33 33 35 34 36 35 38 38 37 37 38 38 38 38 39 39 39 39 40 40 40
27 29 24 22 17 17 15 20 20 23 23 21 17 21 21 21 20 18 18 19 21 22 24 26 28 27 29 30 30 31 32 33 34 34 37 38 38 37 38 37 38 38 39 39 40 39 39 39 39
21 21 25 24 18 16 13 20 15 20 21 21 19 18 21 20 20 19 18 18 19 21 23 26 27 27 28 28 30 31 33 33 32 34 36 38 39 37 37 37 37 38 39 39 39 39 38 38 38
20 19 21 22 17 17 20 18 21 15 21 21 21 20 17 21 21 20 20 19 19 21 23 24 25 27 27 27 29 30 32 32 32 34 36 37 39 37 37 37 37 38 39 39 38 38 37 37 37
17 16 17 19 16 13 19 21 23 8 14 15 17 17 19 16 20 21 21 20 20 20 22 23 25 26 27 27 29 30 31 32 33 34 36 38 39 39 37 37 37 38 38 38 37 36 37 36 35
15 13 15 14 12 11 9 13 17 15 11 9 7 9 12 14 15 18 21 21 20 20 22 23 25 26 28 29 29 31 31 32 33 35 36 38 38 38 37 37 37 38 37 36 36 36 36 35 35
3 13 9 -0 8 10 10 10 9 8 5 4 5 5 6 11 12 13 19 20 19 21 22 23 25 27 28 29 29 30 30 32 33 35 36 37 38 38 37 37 37 37 36 36 36 36 35 34 34
12 6 5 1 8 7 5 4 3 4 3 2 2 1 1 3 8 9 12 19 18 19 21 23 24 26 28 29 31 31 31 33 33 35 37 37 38 38 37 37 36 36 36 34 34 34 33 34 34
3 4 1 -0 8 8 7 -4 -2 3 6 5 4 3 2 1 2 5 7 15 17 18 20 22 24 26 28 30 33 33 33 33 33 35 36 38 38 38 38 37 37 36 35 34 34 33 33 32 33
0 3 2 4 0 -4 7 -12 0 0 -1 2 5 11 6 5 2 2 5 9 15 17 19 21 24 26 28 31 31 30 30 28 32 34 36 37 38 37 38 37 36 35 35 34 33 34 33 33 30
4 11 8 10 5 6 6 4 -1 4 1 1 3 6 10 10 6 3 3 5 12 16 19 21 24 25 27 30 30 30 29 29 33 34 35 36 37 37 37 36 35 35 34 33 33 32 32 33 32
13 14 18 17 10 5 1 -5 -22 -12 -7 3 7 8 12 12 9 6 4 5 10 16 19 21 24 25 27 29 30 29 28 30 33 34 34 35 35 36 35 35 34 34 33 32 32 32 32 32 32
12 8 8 1 2 3 7 0 -10 -1 1 9 9 9 10 13 12 10 5 7 11 17 19 21 25 25 28 29 30 29 28 30 31 33 34 34 34 33 33 34 33 32 32 33 33 32 32 32 31
12 8 6 -5 5 4 8 5 4 10 13 14 13 13 12 12 11 13 9 9 12 17 19 21 25 25 28 29 30 30 29 30 32 33 33 33 33 32 33 33 33 32 32 33 33 32 32 32 31
10 13 13 12 9 10 10 11 9 13 12 13 11 7 10 12 13 13 14 12 14 17 19 20 24 26 28 29 30 30 30 32 32 32 33 33 33 32 33 33 32 32 32 32 32 31 31 31 31
10 13 9 13 -5 -1 0 5 0 0 5 10 10 9 8 11 12 14 14 16 17 18 19 21 22 24 28 30 30 30 31 32 32 33 32 32 33 32 32 32 32 32 32 32 31 30 31 30 30
10 12 14 14 14 4 4 3 12 7 7 10 11 10 10 10 11 13 15 16 17 21 21 22 23 26 29 30 31 31 31 32 33 33 33 32 32 32 32 32 32 32 32 31 30 29 29 27 28
12 10 14 9 5 16 15 4 12 13 12 13 12 12 13 12 12 12 14 16 18 21 24 25 26 26 28 30 30 31 32 32 32 32 32 32 32 32 32 32 32 32 32 31 29 27 27 27 28
Lifted_Index
4 4 3 5 6 6 5 5 6 5 4 3 3 3 3 3 3 3 3 4 4 3 1 1 0 -0 0 0 0 0 0 0 -0 -1 -0 -0 0 0 -0 -0 -0 -1 -1 -1 -1 -1 -0 0 -0
4 4 3 4 5 5 4 6 6 5 4 4 4 3 3 3 3 3 3 4 4 3 2 1 1 1 1 1 1 1 1 1 0 0 0 1 1 1 1 1 1 0 -0 -0 -1 -1 -1 -0 -0
4 4 3 4 4 4 4 6 6 6 5 5 4 4 4 4 4 4 4 5 5 4 3 2 2 2 2 2 2 2 2 2 1 1 2 3 3 3 2 2 2 2 2 1 1 0 -0 -0 -0
4 4 3 3 3 3 4 5 5 5 5 5 5 5 5 5 5 5 5 5 5 4 4 3 3 4 4 4 3 3 3 3 3 3 4 5 6 5 5 5 5 5 5 4 3 3 2 2 1
3 3 3 3 3 3 3 4 4 4 4 5 5 5 5 6 6 7 6 6 5 4 4 5 5 6 7 7 6 6 6 6 6 7 8 8 9 9 9 9 9 9 9 8 7 6 6 5 5
3 3 3 3 3 3 3 4 4 4 4 4 5 5 5 6 7 8 7 6 6 5 5 6 8 9 10 10 10 10 10 10 11 11 11 12 12 12 12 12 12 11 11 10 10 9 9 9 9
3 3 3 3 3 3 3 4 4 4 4 4 4 4 5 6 8 9 8 7 7 7 7 9 10 12 12 12 12 12 12 13 13 14 14 14 14 14 14 14 13 13 12 12 12 11 11 12 12
3 3 3 3 3 3 3 4 5 5 4 5 5 5 5 6 8 9 9 8 8 8 9 11 13 14 15 14 14 14 14 14 15 15 15 15 15 15 15 15 14 14 14 13 13 13 13 13 14
4 3 3 3 3 3 3 4 6 6 5 5 6 6 6 7 8 9 9 9 9 9 10 12 14 16 16 16 16 15 15 16 16 16 16 16 16 16 16 16 16 15 15 15 14 14 15 15 15
4 3 2 3 3 4 4 5 6 7 6 5 5 6 6 7 8 8 9 9 10 9 10 12 14 16 16 16 16 16 16 16 16 17 17 17 17 17 17 17 17 17 16 16 15 15 16 16 16
5 4 4 4 5 6 6 7 8 7 7 6 5 6 7 7 8 8 9 9 10 10 10 12 14 16 16 16 16 16 16 16 16 16 16 16 16 16 16 16 17 17 17 16 16 16 16 16 16
6 7 7 8 8 9 9 9 9 8 7 6 6 7 7 8 8 8 9 9 10 11 11 12 14 15 16 16 16 16 16 16 16 16 16 16 16 16 16 16 16 16 16 16 16 16 16 16 16
6 7 8 9 10 10 10 9 9 9 8 7 7 7 8 8 8 9 9 9 10 11 12 13 14 15 15 16 16 16 16 16 16 16 16 16 16 16 16 16 16 16 16 16 16 16 15 15 15
6 6 7 8 9 10 9 9 9 9 9 9 8 8 8 8 8 9 9 9 10 11 12 13 14 15 15 15 15 15 15 16 16 16 16 16 16 15 15 15 15 16 16 16 16 16 15 15 15
6 5 5 6 8 9 9 8 7 8 9 9 9 9 9 9 8 8 9 9 9 11 12 14 14 15 15 15 15 15 15 15 15 15 15 15 15 15 15 15 15 15 16 16 16 15 15 15 15
6 5 5 6 7 8 7 6 6 7 8 9 9 10 10 9 8 8 8 9 9 10 11 13 14 15 15 15 15 15 15 15 15 15 15 15 15 15 15 15 15 15 16 16 15 15 15 15 15
4 4 5 5 6 7 7 6 5 6 7 8 8 9 9 9 8 7 8 9 9 10 11 13 14 15 15 15 15 15 15 15 15 15 15 15 15 15 15 15 15 15 15 15 15 15 15 15 15
4 4 4 5 5 6 6 6 5 6 7 7 7 8 8 8 8 8 8 9 9 10 11 13 14 15 15 15 15 15 15 15 15 15 15 15 15 15 15 15 15 15 15 15 15 15 15 15 15
5 5 5 5 5 6 6 6 5 5 6 5 5 6 7 7 8 8 9 9 10 10 11 12 14 14 15 15 14 14 14 15 15 15 15 15 15 15 15 15 15 15 15 15 15 15 15 15 15
6 5 4 4 5 6 6 6 5 4 4 4 4 4 5 5 6 8 9 9 10 10 11 12 13 14 14 15 15 14 15 15 15 15 15 15 15 15 15 14 14 15 15 15 15 15 15 15 15
5 5 4 4 5 5 5 5 4 3 3 3 3 3 3 4 5 6 8 9 10 10 11 12 13 14 14 15 15 15 14 15 15 14 14 15 15 15 15 14 14 15 15 15 15 15 15 15 15
5 5 5 5 4 4 4 4 3 3 2 2 2 3 3 4 4 6 7 8 9 10 11 12 13 14 14 15 15 14 14 14 14 14 14 14 15 15 15 14 14 15 15 15 15 15 15 15 15
6 6 6 5 4 3 3 3 3 3 2 2 2 3 3 4 5 6 7 8 9 10 11 12 13 14 14 15 15 14 14 14 14 14 14 14 14 15 15 14 14 15 15 15 15 15 15 15 15
7 7 5 4 3 3 3 3 3 3 3 2 2 3 3 4 5 6 7 8 9 10 11 12 12 13 14 15 15 14 14 14 14 14 14 14 14 14 14 14 14 15 15 15 15 15 15 15 15
7 6 3 2 2 2 3 3 3 4 4 3 3 3 4 5 5 6 6 7 8 9 10 11 12 12 13 14 14 14 14 14 14 14 14 14 14 14 14 14 14 14 15 15 15 15 15 15 15
6 5 3 2 1 2 3 3 4 5 5 4 4 4 5 5 6 6 7 7 8 9 10 11 11 12 13 13 14 14 14 14 14 14 14 14 14 14 14 14 14 14 15 15 15 14 15 15 15
6 5 4 3 2 2 2 3 4 5 5 4 4 5 5 6 6 7 7 8 9 10 10 11 11 12 12 13 13 13 13 14 14 14 14 14 14 14 14 14 14 14 15 15 14 14 14 15 15
6 5 4 4 2 1 1 2 4 5 5 5 4 5 6 6 7 7 8 8 9 10 10 11 11 11 12 12 12 13 13 13 14 14 13 14 14 14 14 14 14 14 15 14 14 14 14 14 14
5 5 4 3 2 1 1 2 4 5 5 5 5 5 5 6 7 7 8 8 9 10 10 10 10 10 10 11 11 12 12 13 13 13 13 13 13 14 14 14 14 14 14 14 13 13 14 14 14
4 4 4 3 2 2 2 3 5 6 5 5 4 5 5 6 6 7 8 8 9 9 9 9 9 9 9 10 10 11 12 12 13 13 13 13 13 14 14 14 13 14 14 14 13 13 14 14 14